This demonstration page uses our WeatherBlox Daily Observations layout. Learn more.

Hourly Observations for August 27, 2017

Temp ( °F °C ) Dew Point ( °F °C ) Humidity (%) Winds ( mph kmh ) Pressure ( in mb ) Visibility ( mi km ) Precip ( " mm )
12:15 am 00:15 Clear 69 20.7 64 17.8 84 84 SE 6 9 29.97 1015 10 16.09344 0 0
12:35 am 00:35 Clear 68 20.1 64 17.6 86 86 SE 7 11 29.97 1015 10 16.09344 0 0
12:55 am 00:55 Clear 68 19.9 64 17.5 86 86 SSE 7 11 30 1016 10 16.09344 0 0
1:15 am 01:15 Clear 68 20 63 17.4 85 85 SSE 6 9 30 1016 10 16.09344 0 0
1:35 am 01:35 Clear 69 20.4 63 17.3 82 82 S 5 7 29.94 1014 10 16.09344 0 0
1:55 am 01:55 Clear 68 20.2 63 17.2 83 83 S 5 7 29.94 1014 10 16.09344 0 0
2:15 am 02:15 Clear 68 20.2 63 17.2 83 83 S 3 6 29.94 1014 10 16.09344 0 0
2:35 am 02:35 Clear 68 19.9 63 17.3 85 85 Calm 30 1016 10 16.09344 0 0
2:55 am 02:55 Clear 68 20.1 63 17.2 83 83 S 10 17 29.94 1014 10 16.09344 0 0
3:15 am 03:15 Clear 69 20.6 63 17.3 81 81 S 7 11 29.94 1014 10 16.09344 0 0
3:35 am 03:35 Clear 68 20.1 63 17.2 83 83 S 6 9 29.94 1014 10 16.09344 0 0
3:55 am 03:55 Clear 69 20.4 63 17.2 82 82 S 3 6 29.97 1015 10 16.09344 0 0
4:15 am 04:15 Clear 68 20.1 63 17.3 84 84 SSW 5 7 29.97 1015 10 16.09344 0 0
4:35 am 04:35 Mostly Cloudy 65 18.1 58 14.5 80 80 N 39 63 30.06 1018 10 16.09344 0 0
4:55 am 04:55 Cloudy 61 15.9 58 14.5 91 91 N 29 46 30.12 1020 1.25 2.01168 0.35 8.89
5:15 am 05:15 Cloudy with Heavy Thunderstorms 60 15.8 58 14.6 93 93 NNE 16 26 30.09 1019 2.5 4.02336 0.29 7.366
5:35 am 05:35 Cloudy with Thunderstorms 62 16.5 58 14.6 89 89 E 14 22 30.09 1019 10 16.09344 0.38 9.652
5:55 am 05:55 Mostly Cloudy with Light Thunderstorms 63 17 58 14.5 85 85 E 12 19 30.03 1017 10 16.09344 0.41 10.414
6:15 am 06:15 Mostly Cloudy with Thunderstorms 64 17.7 57 14.1 80 80 E 9 15 30.03 1017 10 16.09344 0 0
6:35 am 06:35 Cloudy with Nearby Thunderstorms 64 17.7 58 14.3 81 81 ESE 12 19 30.03 1017 10 16.09344 0 0
6:55 am 06:55 Cloudy with Light Thunderstorms 63 17.4 58 14.4 83 83 ENE 7 11 30.03 1017 10 16.09344 0 0
7:15 am 07:15 Mostly Cloudy with Light Thunderstorms 63 17.1 58 14.5 85 85 ESE 5 7 30.03 1017 3 4.828032 0 0
7:35 am 07:35 Partly Cloudy with Nearby Thunderstorms 62 16.8 58 14.6 87 87 SSW 5 7 30.06 1018 10 16.09344 0 0
7:55 am 07:55 Partly Cloudy 62 16.6 59 14.9 90 90 SSW 3 6 30.06 1018 10 16.09344 0 0
8:15 am 08:15 Partly Cloudy 63 17 59 14.9 88 88 SW 5 7 30.03 1017 10 16.09344 0 0
8:35 am 08:35 Sunny 64 17.6 59 15.2 86 86 Calm 30.03 1017 10 16.09344 0 0
8:55 am 08:55 Sunny 66 18.7 59 15.2 80 80 WSW 5 7 30.06 1018 10 16.09344 0 0
9:15 am 09:15 Sunny 67 19.6 59 15.2 76 76 NW 3 6 30.06 1018 10 16.09344 0 0
9:35 am 09:35 Sunny 68 19.8 61 16 79 79 NW 5 7 30.06 1018 10 16.09344 0 0
9:55 am 09:55 Sunny 68 20.2 62 16.6 80 80 N 7 11 30.06 1018 10 16.09344 0 0
10:15 am 10:15 Sunny 70 20.9 62 16.5 76 76 NNW 8 13 30.03 1017 10 16.09344 0 0
10:35 am 10:35 Sunny 71 21.8 61 16.1 70 70 N 7 11 30.03 1017 10 16.09344 0 0
10:55 am 10:55 Sunny 72 22.2 62 16.9 72 72 N 6 9 30.06 1018 10 16.09344 0 0
11:15 am 11:15 Sunny 73 22.9 61 16.3 66 66 N 6 9 30.06 1018 10 16.09344 0 0
11:35 am 11:35 Sunny 74 23.5 62 16.4 65 65 NNE 6 9 30.06 1018 10 16.09344 0 0
11:55 am 11:55 Sunny 75 23.7 60 15.3 59 59 NNE 7 11 30.06 1018 10 16.09344 0 0
12:15 pm 12:15 Sunny 76 24.2 59 15 57 57 NNE 7 11 30.06 1018 10 16.09344 0 0
12:35 pm 12:35 Sunny 76 24.3 59 15.1 57 57 NE 7 11 30.06 1018 10 16.09344 0 0
12:55 pm 12:55 Sunny 77 24.8 61 15.9 58 58 N 6 9 30.03 1017 10 16.09344 0 0
1:15 pm 13:15 Sunny 77 25.1 60 15.8 56 56 NE 5 7 30.03 1017 10 16.09344 0 0
1:35 pm 13:35 Sunny 77 25.2 61 16 57 57 N 5 7 30 1016 10 16.09344 0 0
1:55 pm 13:55 Sunny 78 25.4 62 16.5 58 58 NNE 7 11 30 1016 10 16.09344 0 0
2:15 pm 14:15 Sunny 79 25.9 63 17 58 58 NNE 9 15 30 1016 10 16.09344 0 0
2:35 pm 14:35 Partly Cloudy 79 26 64 17.8 61 61 NE 8 13 30 1016 10 16.09344 0 0
2:55 pm 14:55 Partly Cloudy 79 26 63 17.4 59 59 NE 7 11 30 1016 10 16.09344 0 0
3:15 pm 15:15 Partly Cloudy 79 26.1 64 17.5 59 59 NNE 7 11 30 1016 10 16.09344 0 0
3:35 pm 15:35 Partly Cloudy 79 26.2 62 16.4 55 55 N 6 9 30 1016 10 16.09344 0 0
3:55 pm 15:55 Partly Cloudy 80 26.6 63 17.2 56 56 NNE 8 13 30 1016 10 16.09344 0 0
4:15 pm 16:15 Partly Cloudy 80 26.4 63 17.3 57 57 NNE 7 11 30 1016 10 16.09344 0 0
4:35 pm 16:35 Sunny 80 26.5 62 16.8 55 55 NNE 9 15 30 1016 10 16.09344 0 0
4:55 pm 16:55 Sunny 80 26.6 63 17.2 56 56 NE 8 13 30 1016 10 16.09344 0 0
5:15 pm 17:15 Sunny 80 26.5 62 16.5 54 54 N 7 11 30 1016 10 16.09344 0 0
5:35 pm 17:35 Partly Cloudy 80 26.4 61 16 53 53 NNE 9 15 30 1016 10 16.09344 0 0
5:55 pm 17:55 Sunny 79 26 62 16.6 56 56 NNE 7 11 30 1016 10 16.09344 0 0
6:15 pm 18:15 Sunny 78 25.7 62 16.4 57 57 NE 6 9 30 1016 10 16.09344 0 0
6:35 pm 18:35 Sunny 78 25.5 61 16.2 56 56 NNE 7 11 30 1016 10 16.09344 0 0
6:55 pm 18:55 Sunny 77 25 63 17 61 61 NNE 6 9 30 1016 10 16.09344 0 0
7:15 pm 19:15 Sunny 76 24.4 63 17.2 64 64 NNE 5 7 30 1016 10 16.09344 0 0
7:35 pm 19:35 Sunny 74 23.5 64 18 71 71 NNE 3 6 30.03 1017 10 16.09344 0 0
7:55 pm 19:55 Sunny 73 22.6 65 18.1 76 76 NNE 3 6 30.03 1017 10 16.09344 0 0
8:15 pm 20:15 Sunny 72 22 65 18.6 81 81 Calm 30.03 1017 10 16.09344 0 0
8:35 pm 20:35 Partly Cloudy 71 21.6 65 18.1 81 81 NE 7 11 30.03 1017 10 16.09344 0 0
8:55 pm 20:55 Mostly Cloudy 68 20.2 63 17.2 83 83 NE 6 9 30.06 1018 10 16.09344 0 0
9:15 pm 21:15 Cloudy 68 20.1 64 17.5 85 85 NE 5 7 30.09 1019 10 16.09344 0 0
9:35 pm 21:35 Cloudy 68 20 64 17.6 86 86 ENE 5 7 30.09 1019 10 16.09344 0 0
9:55 pm 21:55 Partly Cloudy 67 19.5 63 17.1 86 86 ENE 5 7 30.09 1019 10 16.09344 0 0
10:15 pm 22:15 Clear 66 18.8 63 17 89 89 NE 3 6 30.09 1019 10 16.09344 0 0
10:35 pm 22:35 Clear 65 18.2 62 16.6 90 90 ENE 3 6 30.09 1019 10 16.09344 0 0
10:55 pm 22:55 Clear 65 18.1 62 16.7 92 92 Calm 30.09 1019 10 16.09344 0 0
11:15 pm 23:15 Clear 64 18 62 16.5 91 91 Calm 30.09 1019 10 16.09344 0 0
11:35 pm 23:35 Clear 63 17.1 61 15.9 93 93 Calm 30.12 1020 10 16.09344 0 0
11:55 pm 23:55 Clear 62 16.5 60 15.6 94 94 Calm 30.12 1020 7 11.265408 0 0

Powered by AerisWeather